TDRS 12

Last updated on Sun Apr 12 2026 00:02:44 GMT+0000 (Coordinated Universal Time)

1 39504U 14004A 26101.26181100 -.00000266 00000+0 00000+0 0 9992 2 39504 3.9124 17.9184 0002332 252.7662 342.1390 1.00275275 43606
UTC large
Height (km)
Speed (km/s)
/
Latitude / Longitude
Inclination (degrees)
Orbital Period (minutes)
Azimuth
Elevation
Range (km)
Doppler Factor

Next 0 passes for location: London (51.5072 / 0.1276)

Sorry there are no passes over London.
TDRS 12